Year,Month,Day,Hour,Minute,Value (Times are PST for temperature in C)
2014,07,11,00,00,14.60
2014,07,11,00,01,14.50
2014,07,11,00,02,14.40
2014,07,11,00,03,14.40
2014,07,11,00,04,14.30
2014,07,11,00,05,14.30
2014,07,11,00,06,14.30
2014,07,11,00,07,14.20
2014,07,11,00,08,14.20
2014,07,11,00,09,14.20
2014,07,11,00,10,14.10
2014,07,11,00,11,14.10
2014,07,11,00,12,14.00
2014,07,11,00,13,14.00
2014,07,11,00,14,14.00
2014,07,11,00,15,13.90
2014,07,11,00,16,13.90
2014,07,11,00,17,13.90
2014,07,11,00,18,13.80
2014,07,11,00,19,13.80
2014,07,11,00,20,13.80
2014,07,11,00,21,13.80
2014,07,11,00,22,13.70
2014,07,11,00,23,13.70
2014,07,11,00,24,13.70
2014,07,11,00,25,13.70
2014,07,11,00,26,13.60
2014,07,11,00,27,13.60
2014,07,11,00,28,13.60
2014,07,11,00,29,13.60
2014,07,11,00,30,13.50
2014,07,11,00,31,13.50
2014,07,11,00,32,13.50
2014,07,11,00,33,13.40
2014,07,11,00,34,13.40
2014,07,11,00,35,13.40
2014,07,11,00,36,13.40
2014,07,11,00,37,13.30
2014,07,11,00,38,13.30
2014,07,11,00,39,13.30
2014,07,11,00,40,13.30
2014,07,11,00,41,13.30
2014,07,11,00,42,13.30
2014,07,11,00,43,13.30
2014,07,11,00,44,13.30
2014,07,11,00,45,13.20
2014,07,11,00,46,13.20
2014,07,11,00,47,13.20
2014,07,11,00,48,13.10
2014,07,11,00,49,13.10
2014,07,11,00,50,13.10
2014,07,11,00,51,13.10
2014,07,11,00,52,13.10
2014,07,11,00,53,13.00
2014,07,11,00,54,13.00
2014,07,11,00,55,13.00
2014,07,11,00,56,13.00
2014,07,11,00,57,13.00
2014,07,11,00,58,13.00
2014,07,11,00,59,12.90
2014,07,11,01,00,12.90
2014,07,11,01,01,12.90
2014,07,11,01,02,12.90
2014,07,11,01,03,12.90
2014,07,11,01,04,12.90
2014,07,11,01,05,12.80
2014,07,11,01,06,12.80
2014,07,11,01,07,12.80
2014,07,11,01,08,12.80
2014,07,11,01,09,12.80
2014,07,11,01,10,12.80
2014,07,11,01,11,12.80
2014,07,11,01,12,12.70
2014,07,11,01,13,12.70
2014,07,11,01,14,12.70
2014,07,11,01,15,12.70
2014,07,11,01,16,12.70
2014,07,11,01,17,12.60
2014,07,11,01,18,12.60
2014,07,11,01,19,12.60
2014,07,11,01,20,12.60
2014,07,11,01,21,12.60
2014,07,11,01,22,12.60
2014,07,11,01,23,12.60
2014,07,11,01,24,12.50
2014,07,11,01,25,12.50
2014,07,11,01,26,12.50
2014,07,11,01,27,12.50
2014,07,11,01,28,12.40
2014,07,11,01,29,12.40
2014,07,11,01,30,12.40
2014,07,11,01,31,12.40
2014,07,11,01,32,12.40
2014,07,11,01,33,12.40
2014,07,11,01,34,12.40
2014,07,11,01,35,12.40
2014,07,11,01,36,12.40
2014,07,11,01,37,12.40
2014,07,11,01,38,12.40
2014,07,11,01,39,12.30
2014,07,11,01,40,12.30
2014,07,11,01,41,12.30
2014,07,11,01,42,12.30
2014,07,11,01,43,12.30
2014,07,11,01,44,12.30
2014,07,11,01,45,12.30
2014,07,11,01,46,12.30
2014,07,11,01,47,12.30
2014,07,11,01,48,12.30
2014,07,11,01,49,12.30
2014,07,11,01,50,12.30
2014,07,11,01,51,12.30
2014,07,11,01,52,12.30
2014,07,11,01,53,12.30
2014,07,11,01,54,12.30
2014,07,11,01,55,12.30
2014,07,11,01,56,12.20
2014,07,11,01,57,12.20
2014,07,11,01,58,12.20
2014,07,11,01,59,12.20
2014,07,11,02,00,12.20
2014,07,11,02,01,12.20
2014,07,11,02,02,12.20
2014,07,11,02,03,12.20
2014,07,11,02,04,12.20
2014,07,11,02,05,12.20
2014,07,11,02,06,12.20
2014,07,11,02,07,12.10
2014,07,11,02,08,12.10
2014,07,11,02,09,12.10
2014,07,11,02,10,12.10
2014,07,11,02,11,12.10
2014,07,11,02,12,12.10
2014,07,11,02,13,12.10
2014,07,11,02,14,12.10
2014,07,11,02,15,12.10
2014,07,11,02,16,12.10
2014,07,11,02,17,12.10
2014,07,11,02,18,12.00
2014,07,11,02,19,12.00
2014,07,11,02,20,12.00
2014,07,11,02,21,12.00
2014,07,11,02,22,12.00
2014,07,11,02,23,11.90
2014,07,11,02,24,11.90
2014,07,11,02,25,11.90
2014,07,11,02,26,11.90
2014,07,11,02,27,11.90
2014,07,11,02,28,11.90
2014,07,11,02,29,11.90
2014,07,11,02,30,11.90
2014,07,11,02,31,11.90
2014,07,11,02,32,11.90
2014,07,11,02,33,11.90
2014,07,11,02,34,11.90
2014,07,11,02,35,11.90
2014,07,11,02,36,11.90
2014,07,11,02,37,11.90
2014,07,11,02,38,11.90
2014,07,11,02,39,11.90
2014,07,11,02,40,11.90
2014,07,11,02,41,11.90
2014,07,11,02,42,11.90
2014,07,11,02,43,11.90
2014,07,11,02,44,11.90
2014,07,11,02,45,11.90
2014,07,11,02,46,11.90
2014,07,11,02,47,11.90
2014,07,11,02,48,11.90
2014,07,11,02,49,11.90
2014,07,11,02,50,11.90
2014,07,11,02,51,11.90
2014,07,11,02,52,11.90
2014,07,11,02,53,11.80
2014,07,11,02,54,11.80
2014,07,11,02,55,11.80
2014,07,11,02,56,11.80
2014,07,11,02,57,11.80
2014,07,11,02,58,11.80
2014,07,11,02,59,11.80
2014,07,11,03,00,11.80
2014,07,11,03,01,11.80
2014,07,11,03,02,11.80
2014,07,11,03,03,11.80
2014,07,11,03,04,11.80
2014,07,11,03,05,11.80
2014,07,11,03,06,11.80
2014,07,11,03,07,11.70
2014,07,11,03,08,11.70
2014,07,11,03,09,11.70
2014,07,11,03,10,11.70
2014,07,11,03,11,11.70
2014,07,11,03,12,11.70
2014,07,11,03,13,11.70
2014,07,11,03,14,11.70
2014,07,11,03,15,11.70
2014,07,11,03,16,11.70
2014,07,11,03,17,11.70
2014,07,11,03,18,11.70
2014,07,11,03,19,11.70
2014,07,11,03,20,11.60
2014,07,11,03,21,11.60
2014,07,11,03,22,11.60
2014,07,11,03,23,11.60
2014,07,11,03,24,11.60
2014,07,11,03,25,11.60
2014,07,11,03,26,11.60
2014,07,11,03,27,11.60
2014,07,11,03,28,11.60
2014,07,11,03,29,11.60
2014,07,11,03,30,11.60
2014,07,11,03,31,11.60
2014,07,11,03,32,11.60
2014,07,11,03,33,11.60
2014,07,11,03,34,11.60
2014,07,11,03,35,11.60
2014,07,11,03,36,11.60
2014,07,11,03,37,11.60
2014,07,11,03,38,11.60
2014,07,11,03,39,11.60
2014,07,11,03,40,11.60
2014,07,11,03,41,11.60
2014,07,11,03,42,11.60
2014,07,11,03,43,11.60
2014,07,11,03,44,11.60
2014,07,11,03,45,11.60
2014,07,11,03,46,11.60
2014,07,11,03,47,11.60
2014,07,11,03,48,11.60
2014,07,11,03,49,11.60
2014,07,11,03,50,11.60
2014,07,11,03,51,11.60
2014,07,11,03,52,11.50
2014,07,11,03,53,11.50
2014,07,11,03,54,11.50
2014,07,11,03,55,11.50
2014,07,11,03,56,11.50
2014,07,11,03,57,11.50
2014,07,11,03,58,11.50
2014,07,11,03,59,11.60
2014,07,11,04,00,11.60
2014,07,11,04,01,11.60
2014,07,11,04,02,11.50
2014,07,11,04,03,11.60
2014,07,11,04,04,11.50
2014,07,11,04,05,11.50
2014,07,11,04,06,11.50
2014,07,11,04,07,11.50
2014,07,11,04,08,11.50
2014,07,11,04,09,11.50
2014,07,11,04,10,11.50
2014,07,11,04,11,11.50
2014,07,11,04,12,11.50
2014,07,11,04,13,11.50
2014,07,11,04,14,11.50
2014,07,11,04,15,11.50
2014,07,11,04,16,11.50
2014,07,11,04,17,11.50
2014,07,11,04,18,11.50
2014,07,11,04,19,11.50
2014,07,11,04,20,11.50
2014,07,11,04,21,11.40
2014,07,11,04,22,11.40
2014,07,11,04,23,11.40
2014,07,11,04,24,11.40
2014,07,11,04,25,11.40
2014,07,11,04,26,11.40
2014,07,11,04,27,11.40
2014,07,11,04,28,11.40
2014,07,11,04,29,11.40
2014,07,11,04,30,11.40
2014,07,11,04,31,11.40
2014,07,11,04,32,11.40
2014,07,11,04,33,11.40
2014,07,11,04,34,11.40
2014,07,11,04,35,11.30
2014,07,11,04,36,11.30
2014,07,11,04,37,11.30
2014,07,11,04,38,11.30
2014,07,11,04,39,11.30
2014,07,11,04,40,11.30
2014,07,11,04,41,11.30
2014,07,11,04,42,11.30
2014,07,11,04,43,11.30
2014,07,11,04,44,11.30
2014,07,11,04,45,11.30
2014,07,11,04,46,11.30
2014,07,11,04,47,11.30
2014,07,11,04,48,11.30
2014,07,11,04,49,11.20
2014,07,11,04,50,11.20
2014,07,11,04,51,11.20
2014,07,11,04,52,11.20
2014,07,11,04,53,11.20
2014,07,11,04,54,11.20
2014,07,11,04,55,11.20
2014,07,11,04,56,11.20
2014,07,11,04,57,11.20
2014,07,11,04,58,11.20
2014,07,11,04,59,11.20
2014,07,11,05,00,11.20
2014,07,11,05,01,11.20
2014,07,11,05,02,11.20
2014,07,11,05,03,11.20
2014,07,11,05,04,11.20
2014,07,11,05,05,11.20
2014,07,11,05,06,11.20
2014,07,11,05,07,11.20
2014,07,11,05,08,11.20
2014,07,11,05,09,11.20
2014,07,11,05,10,11.20
2014,07,11,05,11,11.20
2014,07,11,05,12,11.20
2014,07,11,05,13,11.20
2014,07,11,05,14,11.20
2014,07,11,05,15,11.20
2014,07,11,05,16,11.20
2014,07,11,05,17,11.20
2014,07,11,05,18,11.20
2014,07,11,05,19,11.20
2014,07,11,05,20,11.20
2014,07,11,05,21,11.20
2014,07,11,05,22,11.20
2014,07,11,05,23,11.20
2014,07,11,05,24,11.20
2014,07,11,05,25,11.20
2014,07,11,05,26,11.20
2014,07,11,05,27,11.20
2014,07,11,05,28,11.20
2014,07,11,05,29,11.20
2014,07,11,05,30,11.20
2014,07,11,05,31,11.20
2014,07,11,05,32,11.20
2014,07,11,05,33,11.20
2014,07,11,05,34,11.20
2014,07,11,05,35,11.20
2014,07,11,05,36,11.20
2014,07,11,05,37,11.20
2014,07,11,05,38,11.30
2014,07,11,05,39,11.20
2014,07,11,05,40,11.30
2014,07,11,05,41,11.30
2014,07,11,05,42,11.20
2014,07,11,05,43,11.20
2014,07,11,05,44,11.20
2014,07,11,05,45,11.20
2014,07,11,05,46,11.20
2014,07,11,05,47,11.20
2014,07,11,05,48,11.20
2014,07,11,05,49,11.20
2014,07,11,05,50,11.20
2014,07,11,05,51,11.20
2014,07,11,05,52,11.20
2014,07,11,05,53,11.20
2014,07,11,05,54,11.20
2014,07,11,05,55,11.20
2014,07,11,05,56,11.20
2014,07,11,05,57,11.20
2014,07,11,05,58,11.20
2014,07,11,05,59,11.20
2014,07,11,06,00,11.30
2014,07,11,06,01,11.30
2014,07,11,06,02,11.30
2014,07,11,06,03,11.30
2014,07,11,06,04,11.30
2014,07,11,06,05,11.30
2014,07,11,06,06,11.30
2014,07,11,06,07,11.30
2014,07,11,06,08,11.30
2014,07,11,06,09,11.30
2014,07,11,06,10,11.30
2014,07,11,06,11,11.30
2014,07,11,06,12,11.30
2014,07,11,06,13,11.30
2014,07,11,06,14,11.40
2014,07,11,06,15,11.40
2014,07,11,06,16,11.40
2014,07,11,06,17,11.40
2014,07,11,06,18,11.40
2014,07,11,06,19,11.40
2014,07,11,06,20,11.40
2014,07,11,06,21,11.50
2014,07,11,06,22,11.50
2014,07,11,06,23,11.60
2014,07,11,06,24,11.60
2014,07,11,06,25,11.60
2014,07,11,06,26,11.60
2014,07,11,06,27,11.70
2014,07,11,06,28,11.70
2014,07,11,06,29,11.70
2014,07,11,06,30,11.70
2014,07,11,06,31,11.70
2014,07,11,06,32,11.80
2014,07,11,06,33,11.80
2014,07,11,06,34,11.80
2014,07,11,06,35,11.80
2014,07,11,06,36,11.80
2014,07,11,06,37,11.80
2014,07,11,06,38,11.80
2014,07,11,06,39,11.90
2014,07,11,06,40,11.90
2014,07,11,06,41,11.90
2014,07,11,06,42,12.00
2014,07,11,06,43,12.10
2014,07,11,06,44,12.10
2014,07,11,06,45,12.10
2014,07,11,06,46,12.20
2014,07,11,06,47,12.20
2014,07,11,06,48,12.20
2014,07,11,06,49,12.30
2014,07,11,06,50,12.30
2014,07,11,06,51,12.30
2014,07,11,06,52,12.30
2014,07,11,06,53,12.30
2014,07,11,06,54,12.40
2014,07,11,06,55,12.40
2014,07,11,06,56,12.40
2014,07,11,06,57,12.40
2014,07,11,06,58,12.50
2014,07,11,06,59,12.50
2014,07,11,07,00,12.50
2014,07,11,07,01,12.60
2014,07,11,07,02,12.60
2014,07,11,07,03,12.60
2014,07,11,07,04,12.60
2014,07,11,07,05,12.70
2014,07,11,07,06,12.70
2014,07,11,07,07,12.70
2014,07,11,07,08,12.70
2014,07,11,07,09,12.80
2014,07,11,07,10,12.80
2014,07,11,07,11,12.80
2014,07,11,07,12,12.90
2014,07,11,07,13,12.90
2014,07,11,07,14,13.00
2014,07,11,07,15,13.00
2014,07,11,07,16,13.10
2014,07,11,07,17,13.20
2014,07,11,07,18,13.30
2014,07,11,07,19,13.40
2014,07,11,07,20,13.50
2014,07,11,07,21,13.50
2014,07,11,07,22,13.60
2014,07,11,07,23,13.70
2014,07,11,07,24,13.80
2014,07,11,07,25,13.90
2014,07,11,07,26,14.00
2014,07,11,07,27,14.00
2014,07,11,07,28,14.10
2014,07,11,07,29,14.10
2014,07,11,07,30,14.20
2014,07,11,07,31,14.20
2014,07,11,07,32,14.30
2014,07,11,07,33,14.40
2014,07,11,07,34,14.40
2014,07,11,07,35,14.50
2014,07,11,07,36,14.50
2014,07,11,07,37,14.60
2014,07,11,07,38,14.70
2014,07,11,07,39,14.70
2014,07,11,07,40,14.80
2014,07,11,07,41,14.90
2014,07,11,07,42,15.00
2014,07,11,07,43,15.10
2014,07,11,07,44,15.20
2014,07,11,07,45,15.30
2014,07,11,07,46,15.40
2014,07,11,07,47,15.50
2014,07,11,07,48,15.50
2014,07,11,07,49,15.60
2014,07,11,07,50,15.70
2014,07,11,07,51,15.70
2014,07,11,07,52,15.80
2014,07,11,07,53,15.80
2014,07,11,07,54,15.80
2014,07,11,07,55,15.90
2014,07,11,07,56,15.90
2014,07,11,07,57,16.00
2014,07,11,07,58,16.00
2014,07,11,07,59,16.00
2014,07,11,08,00,16.10
2014,07,11,08,01,16.10
2014,07,11,08,02,16.10
2014,07,11,08,03,16.20
2014,07,11,08,04,16.20
2014,07,11,08,05,16.30
2014,07,11,08,06,16.30
2014,07,11,08,07,16.40
2014,07,11,08,08,16.40
2014,07,11,08,09,16.40
2014,07,11,08,10,16.50
2014,07,11,08,11,16.60
2014,07,11,08,12,16.60
2014,07,11,08,13,16.60
2014,07,11,08,14,16.70
2014,07,11,08,15,16.70
2014,07,11,08,16,16.70
2014,07,11,08,17,16.70
2014,07,11,08,18,16.80
2014,07,11,08,19,16.80
2014,07,11,08,20,16.80
2014,07,11,08,21,16.80
2014,07,11,08,22,16.80
2014,07,11,08,23,16.80
2014,07,11,08,24,16.80
2014,07,11,08,25,16.80
2014,07,11,08,26,16.80
2014,07,11,08,27,16.80
2014,07,11,08,28,16.80
2014,07,11,08,29,16.80
2014,07,11,08,30,16.80
2014,07,11,08,31,16.80
2014,07,11,08,32,16.80
2014,07,11,08,33,16.90
2014,07,11,08,34,16.90
2014,07,11,08,35,16.90
2014,07,11,08,36,16.90
2014,07,11,08,37,16.90
2014,07,11,08,38,16.90
2014,07,11,08,39,16.90
2014,07,11,08,40,16.90
2014,07,11,08,41,16.90
2014,07,11,08,42,16.90
2014,07,11,08,43,16.90
2014,07,11,08,44,16.90
2014,07,11,08,45,16.90
2014,07,11,08,46,17.00
2014,07,11,08,47,17.00
2014,07,11,08,48,17.00
2014,07,11,08,49,17.00
2014,07,11,08,50,17.00
2014,07,11,08,51,17.10
2014,07,11,08,52,17.10
2014,07,11,08,53,17.10
2014,07,11,08,54,17.20
2014,07,11,08,55,17.20
2014,07,11,08,56,17.20
2014,07,11,08,57,17.20
2014,07,11,08,58,17.20
2014,07,11,08,59,17.30
2014,07,11,09,00,17.30
2014,07,11,09,01,17.30
2014,07,11,09,02,17.40
2014,07,11,09,03,17.40
2014,07,11,09,04,17.40
2014,07,11,09,05,17.40
2014,07,11,09,06,17.50
2014,07,11,09,07,17.50
2014,07,11,09,08,17.60
2014,07,11,09,09,17.60
2014,07,11,09,10,17.70
2014,07,11,09,11,17.80
2014,07,11,09,12,17.80
2014,07,11,09,13,17.90
2014,07,11,09,14,18.00
2014,07,11,09,15,18.00
2014,07,11,09,16,18.10
2014,07,11,09,17,18.20
2014,07,11,09,18,18.30
2014,07,11,09,19,18.40
2014,07,11,09,20,18.40
2014,07,11,09,21,18.50
2014,07,11,09,22,18.50
2014,07,11,09,23,18.60
2014,07,11,09,24,18.60
2014,07,11,09,25,18.60
2014,07,11,09,26,18.70
2014,07,11,09,27,18.70
2014,07,11,09,28,18.70
2014,07,11,09,29,18.70
2014,07,11,09,30,18.80
2014,07,11,09,31,18.80
2014,07,11,09,32,18.90
2014,07,11,09,33,18.90
2014,07,11,09,34,19.00
2014,07,11,09,35,19.10
2014,07,11,09,36,19.20
2014,07,11,09,37,19.20
2014,07,11,09,38,19.30
2014,07,11,09,39,19.40
2014,07,11,09,40,19.40
2014,07,11,09,41,19.50
2014,07,11,09,42,19.50
2014,07,11,09,43,19.60
2014,07,11,09,44,19.60
2014,07,11,09,45,19.60
2014,07,11,09,46,19.60
2014,07,11,09,47,19.70
2014,07,11,09,48,19.70
2014,07,11,09,49,19.70
2014,07,11,09,50,19.70
2014,07,11,09,51,19.70
2014,07,11,09,52,19.70
2014,07,11,09,53,19.70
2014,07,11,09,54,19.80
2014,07,11,09,55,19.80
2014,07,11,09,56,19.80
2014,07,11,09,57,19.90
2014,07,11,09,58,19.90
2014,07,11,09,59,20.00
2014,07,11,10,00,20.00
2014,07,11,10,01,20.00
2014,07,11,10,02,20.00
2014,07,11,10,03,20.00
2014,07,11,10,04,20.00
2014,07,11,10,05,20.00
2014,07,11,10,06,20.00
2014,07,11,10,07,19.90
2014,07,11,10,08,19.90
2014,07,11,10,09,19.90
2014,07,11,10,10,19.90
2014,07,11,10,11,20.00
2014,07,11,10,12,20.00
2014,07,11,10,13,20.00
2014,07,11,10,14,20.10
2014,07,11,10,15,20.10
2014,07,11,10,16,20.10
2014,07,11,10,17,20.10
2014,07,11,10,18,20.10
2014,07,11,10,19,20.10
2014,07,11,10,20,20.10
2014,07,11,10,21,20.10
2014,07,11,10,22,20.20
2014,07,11,10,23,20.20
2014,07,11,10,24,20.30
2014,07,11,10,25,20.30
2014,07,11,10,26,20.30
2014,07,11,10,27,20.30
2014,07,11,10,28,20.40
2014,07,11,10,29,20.40
2014,07,11,10,30,20.50
2014,07,11,10,31,20.60
2014,07,11,10,32,20.60
2014,07,11,10,33,20.60
2014,07,11,10,34,20.70
2014,07,11,10,35,20.70
2014,07,11,10,36,20.80
2014,07,11,10,37,20.80
2014,07,11,10,38,20.80
2014,07,11,10,39,20.90
2014,07,11,10,40,20.90
2014,07,11,10,41,20.90
2014,07,11,10,42,20.90
2014,07,11,10,43,20.90
2014,07,11,10,44,21.00
2014,07,11,10,45,21.00
2014,07,11,10,46,21.10
2014,07,11,10,47,21.10
2014,07,11,10,48,21.10
2014,07,11,10,49,21.10
2014,07,11,10,50,21.00
2014,07,11,10,51,20.90
2014,07,11,10,52,20.70
2014,07,11,10,53,20.50
2014,07,11,10,54,20.30
2014,07,11,10,55,20.20
2014,07,11,10,56,20.00
2014,07,11,10,57,19.80
2014,07,11,10,58,19.70
2014,07,11,10,59,19.50
2014,07,11,11,00,19.40
2014,07,11,11,01,19.40
2014,07,11,11,02,19.30
2014,07,11,11,03,19.30
2014,07,11,11,04,19.20
2014,07,11,11,05,19.10
2014,07,11,11,06,19.00
2014,07,11,11,07,18.80
2014,07,11,11,08,18.70
2014,07,11,11,09,18.60
2014,07,11,11,10,18.50
2014,07,11,11,11,18.40
2014,07,11,11,12,18.40
2014,07,11,11,13,18.40
2014,07,11,11,14,18.30
2014,07,11,11,15,18.30
2014,07,11,11,16,18.30
2014,07,11,11,17,18.30
2014,07,11,11,18,18.30
2014,07,11,11,19,18.30
2014,07,11,11,20,18.30
2014,07,11,11,21,18.30
2014,07,11,11,22,18.30
2014,07,11,11,23,18.30
2014,07,11,11,24,18.40
2014,07,11,11,25,18.40
2014,07,11,11,26,18.50
2014,07,11,11,27,18.60
2014,07,11,11,28,18.60
2014,07,11,11,29,18.70
2014,07,11,11,30,18.70
2014,07,11,11,31,18.80
2014,07,11,11,32,18.80
2014,07,11,11,33,18.80
2014,07,11,11,34,18.80
2014,07,11,11,35,18.70
2014,07,11,11,36,18.70
2014,07,11,11,37,18.70
2014,07,11,11,38,18.70
2014,07,11,11,39,18.60
2014,07,11,11,40,18.60
2014,07,11,11,41,18.60
2014,07,11,11,42,18.70
2014,07,11,11,43,18.80
2014,07,11,11,44,18.90
2014,07,11,11,45,19.00
2014,07,11,11,46,19.10
2014,07,11,11,47,19.20
2014,07,11,11,48,19.20
2014,07,11,11,49,19.30
2014,07,11,11,50,19.40
2014,07,11,11,51,19.30
2014,07,11,11,52,19.30
2014,07,11,11,53,19.30
2014,07,11,11,54,19.30
2014,07,11,11,55,19.30
2014,07,11,11,56,19.30
2014,07,11,11,57,19.30
2014,07,11,11,58,19.30
2014,07,11,11,59,19.30
2014,07,11,12,00,19.30
2014,07,11,12,01,19.20
2014,07,11,12,02,19.20
2014,07,11,12,03,19.30
2014,07,11,12,04,19.30
2014,07,11,12,05,19.30
2014,07,11,12,06,19.30
2014,07,11,12,07,19.40
2014,07,11,12,08,19.40
2014,07,11,12,09,19.50
2014,07,11,12,10,19.60
2014,07,11,12,11,19.60
2014,07,11,12,12,19.60
2014,07,11,12,13,19.60
2014,07,11,12,14,19.70
2014,07,11,12,15,19.70
2014,07,11,12,16,19.70
2014,07,11,12,17,19.70
2014,07,11,12,18,19.70
2014,07,11,12,19,19.70
2014,07,11,12,20,19.80
2014,07,11,12,21,19.80
2014,07,11,12,22,19.80
2014,07,11,12,23,19.70
2014,07,11,12,24,19.70
2014,07,11,12,25,19.60
2014,07,11,12,26,19.60
2014,07,11,12,27,19.50
2014,07,11,12,28,19.60
2014,07,11,12,29,19.60
2014,07,11,12,30,19.60
2014,07,11,12,31,19.70
2014,07,11,12,32,19.70
2014,07,11,12,33,19.70
2014,07,11,12,34,19.70
2014,07,11,12,35,19.70
2014,07,11,12,36,19.80
2014,07,11,12,37,19.80
2014,07,11,12,38,19.90
2014,07,11,12,39,19.90
2014,07,11,12,40,19.90
2014,07,11,12,41,19.80
2014,07,11,12,42,19.80
2014,07,11,12,43,19.80
2014,07,11,12,44,19.80
2014,07,11,12,45,19.90
2014,07,11,12,46,19.90
2014,07,11,12,47,19.90
2014,07,11,12,48,19.80
2014,07,11,12,49,19.80
2014,07,11,12,50,19.70
2014,07,11,12,51,19.70
2014,07,11,12,52,19.60
2014,07,11,12,53,19.70
2014,07,11,12,54,19.70
2014,07,11,12,55,19.70
2014,07,11,12,56,19.80
2014,07,11,12,57,19.80
2014,07,11,12,58,19.90
2014,07,11,12,59,20.00
2014,07,11,13,00,20.00
2014,07,11,13,01,20.10
2014,07,11,13,02,20.10
2014,07,11,13,03,20.20
2014,07,11,13,04,20.20
2014,07,11,13,05,20.10
2014,07,11,13,06,20.10
2014,07,11,13,07,20.10
2014,07,11,13,08,20.10
2014,07,11,13,09,20.10
2014,07,11,13,10,20.10
2014,07,11,13,11,20.10
2014,07,11,13,12,20.10
2014,07,11,13,13,20.20
2014,07,11,13,14,20.20
2014,07,11,13,15,20.20
2014,07,11,13,16,20.30
2014,07,11,13,17,20.30
2014,07,11,13,18,20.30
2014,07,11,13,19,20.30
2014,07,11,13,20,20.40
2014,07,11,13,21,20.50
2014,07,11,13,22,20.50
2014,07,11,13,23,20.60
2014,07,11,13,24,20.60
2014,07,11,13,25,20.60
2014,07,11,13,26,20.60
2014,07,11,13,27,20.60
2014,07,11,13,28,20.70
2014,07,11,13,29,20.80
2014,07,11,13,30,21.00
2014,07,11,13,31,21.00
2014,07,11,13,32,21.10
2014,07,11,13,33,21.10
2014,07,11,13,34,21.20
2014,07,11,13,35,21.30
2014,07,11,13,36,21.30
2014,07,11,13,37,21.40
2014,07,11,13,38,21.40
2014,07,11,13,39,21.50
2014,07,11,13,40,21.50
2014,07,11,13,41,21.50
2014,07,11,13,42,21.60
2014,07,11,13,43,21.60
2014,07,11,13,44,21.70
2014,07,11,13,45,21.70
2014,07,11,13,46,21.80
2014,07,11,13,47,21.90
2014,07,11,13,48,21.90
2014,07,11,13,49,21.90
2014,07,11,13,50,21.90
2014,07,11,13,51,21.80
2014,07,11,13,52,21.70
2014,07,11,13,53,21.70
2014,07,11,13,54,21.70
2014,07,11,13,55,21.80
2014,07,11,13,56,21.80
2014,07,11,13,57,21.80
2014,07,11,13,58,21.70
2014,07,11,13,59,21.70
2014,07,11,14,00,21.80
2014,07,11,14,01,21.80
2014,07,11,14,02,21.70
2014,07,11,14,03,21.80
2014,07,11,14,04,21.80
2014,07,11,14,05,21.90
2014,07,11,14,06,21.90
2014,07,11,14,07,22.00
2014,07,11,14,08,22.10
2014,07,11,14,09,22.10
2014,07,11,14,10,22.20
2014,07,11,14,11,22.20
2014,07,11,14,12,22.30
2014,07,11,14,13,22.30
2014,07,11,14,14,22.40
2014,07,11,14,15,22.40
2014,07,11,14,16,22.40
2014,07,11,14,17,22.40
2014,07,11,14,18,22.40
2014,07,11,14,19,22.40
2014,07,11,14,20,22.40
2014,07,11,14,21,22.50
2014,07,11,14,22,22.50
2014,07,11,14,23,22.50
2014,07,11,14,24,22.60
2014,07,11,14,25,22.70
2014,07,11,14,26,22.70
2014,07,11,14,27,22.80
2014,07,11,14,28,22.90
2014,07,11,14,29,22.90
2014,07,11,14,30,22.90
2014,07,11,14,31,22.90
2014,07,11,14,32,22.90
2014,07,11,14,33,22.90
2014,07,11,14,34,22.90
2014,07,11,14,35,22.90
2014,07,11,14,36,22.80
2014,07,11,14,37,22.80
2014,07,11,14,38,22.70
2014,07,11,14,39,22.60
2014,07,11,14,40,22.60
2014,07,11,14,41,22.50
2014,07,11,14,42,22.50
2014,07,11,14,43,22.40
2014,07,11,14,44,22.40
2014,07,11,14,45,22.30
2014,07,11,14,46,22.30
2014,07,11,14,47,22.40
2014,07,11,14,48,22.40
2014,07,11,14,49,22.30
2014,07,11,14,50,22.30
2014,07,11,14,51,22.20
2014,07,11,14,52,22.20
2014,07,11,14,53,22.20
2014,07,11,14,54,22.20
2014,07,11,14,55,22.20
2014,07,11,14,56,22.20
2014,07,11,14,57,22.30
2014,07,11,14,58,22.30
2014,07,11,14,59,22.30
2014,07,11,15,00,22.40
2014,07,11,15,01,22.40
2014,07,11,15,02,22.50
2014,07,11,15,03,22.60
2014,07,11,15,04,22.60
2014,07,11,15,05,22.60
2014,07,11,15,06,22.50
2014,07,11,15,07,22.50
2014,07,11,15,08,22.40
2014,07,11,15,09,22.40
2014,07,11,15,10,22.40
2014,07,11,15,11,22.50
2014,07,11,15,12,22.50
2014,07,11,15,13,22.50
2014,07,11,15,14,22.60
2014,07,11,15,15,22.70
2014,07,11,15,16,22.70
2014,07,11,15,17,22.70
2014,07,11,15,18,22.80
2014,07,11,15,19,22.80
2014,07,11,15,20,22.90
2014,07,11,15,21,22.90
2014,07,11,15,22,23.00
2014,07,11,15,23,23.10
2014,07,11,15,24,23.20
2014,07,11,15,25,23.20
2014,07,11,15,26,23.20
2014,07,11,15,27,23.30
2014,07,11,15,28,23.30
2014,07,11,15,29,23.30
2014,07,11,15,30,23.30
2014,07,11,15,31,23.30
2014,07,11,15,32,23.40
2014,07,11,15,33,23.40
2014,07,11,15,34,23.40
2014,07,11,15,35,23.50
2014,07,11,15,36,23.50
2014,07,11,15,37,23.50
2014,07,11,15,38,23.60
2014,07,11,15,39,23.60
2014,07,11,15,40,23.50
2014,07,11,15,41,23.40
2014,07,11,15,42,23.40
2014,07,11,15,43,23.30
2014,07,11,15,44,23.30
2014,07,11,15,45,23.30
2014,07,11,15,46,23.30
2014,07,11,15,47,23.30
2014,07,11,15,48,23.40
2014,07,11,15,49,23.40
2014,07,11,15,50,23.50
2014,07,11,15,51,23.60
2014,07,11,15,52,23.60
2014,07,11,15,53,23.70
2014,07,11,15,54,23.70
2014,07,11,15,55,23.60
2014,07,11,15,56,23.60
2014,07,11,15,57,23.50
2014,07,11,15,58,23.40
2014,07,11,15,59,23.20
2014,07,11,16,00,23.10
2014,07,11,16,01,23.10
2014,07,11,16,02,23.10
2014,07,11,16,03,23.00
2014,07,11,16,04,23.00
2014,07,11,16,05,22.90
2014,07,11,16,06,22.90
2014,07,11,16,07,22.90
2014,07,11,16,08,22.80
2014,07,11,16,09,22.80
2014,07,11,16,10,22.80
2014,07,11,16,11,22.70
2014,07,11,16,12,22.60
2014,07,11,16,13,22.50
2014,07,11,16,14,22.50
2014,07,11,16,15,22.50
2014,07,11,16,16,22.50
2014,07,11,16,17,22.50
2014,07,11,16,18,22.50
2014,07,11,16,19,22.40
2014,07,11,16,20,22.40
2014,07,11,16,21,22.40
2014,07,11,16,22,22.30
2014,07,11,16,23,22.30
2014,07,11,16,24,22.30
2014,07,11,16,25,22.20
2014,07,11,16,26,22.30
2014,07,11,16,27,22.30
2014,07,11,16,28,22.40
2014,07,11,16,29,22.50
2014,07,11,16,30,22.60
2014,07,11,16,31,22.60
2014,07,11,16,32,22.70
2014,07,11,16,33,22.70
2014,07,11,16,34,22.80
2014,07,11,16,35,22.90
2014,07,11,16,36,23.00
2014,07,11,16,37,23.10
2014,07,11,16,38,23.10
2014,07,11,16,39,23.10
2014,07,11,16,40,23.20
2014,07,11,16,41,23.20
2014,07,11,16,42,23.20
2014,07,11,16,43,23.20
2014,07,11,16,44,23.30
2014,07,11,16,45,23.30
2014,07,11,16,46,23.30
2014,07,11,16,47,23.40
2014,07,11,16,48,23.50
2014,07,11,16,49,23.40
2014,07,11,16,50,23.30
2014,07,11,16,51,23.20
2014,07,11,16,52,23.10
2014,07,11,16,53,23.10
2014,07,11,16,54,23.10
2014,07,11,16,55,23.10
2014,07,11,16,56,23.00
2014,07,11,16,57,23.00
2014,07,11,16,58,23.00
2014,07,11,16,59,23.00
2014,07,11,17,00,23.10
2014,07,11,17,01,23.20
2014,07,11,17,02,23.20
2014,07,11,17,03,23.30
2014,07,11,17,04,23.30
2014,07,11,17,05,23.30
2014,07,11,17,06,23.40
2014,07,11,17,07,23.40
2014,07,11,17,08,23.50
2014,07,11,17,09,23.50
2014,07,11,17,10,23.50
2014,07,11,17,11,23.60
2014,07,11,17,12,23.60
2014,07,11,17,13,23.60
2014,07,11,17,14,23.50
2014,07,11,17,15,23.40
2014,07,11,17,16,23.40
2014,07,11,17,17,23.30
2014,07,11,17,18,23.30
2014,07,11,17,19,23.30